Weather History for KCDC - January, 2014

Change the Weather History Date:

Friday, January 31, 2014

  Actual Average Record
Temperature  
Mean Temperature 32 °F 30 °F  
Max Temperature 37 °F 43 °F 63 °F (1971)
Min Temperature 26 °F 18 °F -26 °F (1951)
Degree Days  
Heating Degree Days 33 35  
Month to date heating degree days 912 1114  
Since 1 July heating degree days 3767 3675  
Cooling Degree Days 0 0  
Month to date cooling degree days 0 0  
Year to date cooling degree days 0 0  
Moisture  
Dew Point 27 °F    
Average Humidity 85    
Maximum Humidity 100    
Minimum Humidity 70    
Precipitation  
Precipitation 0.22 in 0.03 in 0.35 in (1993)
Month to date precipitation 0.35 0.86  
Year to date precipitation 0.35 0.86  
Sea Level Pressure  
Sea Level Pressure 29.76 in    
Wind  
Wind Speed 2 mph (NNW)    
Max Wind Speed 6 mph    
Max Gust Speed 7 mph    
Visibility 4 miles    
Events Fog , Snow    
T = Trace of Precipitation, MM = Missing Value Source: NWS Daily Summary

Daily Weather History Graph

Daily Weather History Graph

Search for Another Location

Airport or City:

Trip Planner

Search our weather history database for the weather conditions in past years. The results will help you decide how hot, cold, wet, or windy it might be!

Date:

Astronomy

Jan. 31, 2014 Rise Set
Actual Time 7:37 AM MST 5:55 PM MST
Civil Twilight 7:09 AM MST 6:22 PM MST
Nautical Twilight 6:37 AM MST 6:54 PM MST
Astronomical Twilight 6:07 AM MST 7:25 PM MST
Moon 7:51 AM MST (1/31) 7:21 PM MST (1/31)
Length of Visible Light 11h 13m
Length of Day
10h 18m
New Moon, 1% of the Moon is Illuminated
Jan 31
New Moon
Feb 6
First Quarter
Feb 14
Full
Feb 22
Last Quarter
Mar 1
New

Hourly Weather History & Observations

Time (MST) Temp. Windchill Dew Point Humidity Pressure Visibility Wind Dir Wind Speed Gust Speed Precip Events Conditions
12:30 AM 28.9 °F 23.9 °F 27.0 °F 92% 29.74 in 0.2 mi SSW 4.6 mph - N/A Fog Light Freezing Fog
12:43 AM 28.9 °F 23.9 °F 27.0 °F 92% 29.73 in 0.5 mi South 4.6 mph - N/A Fog Light Freezing Fog
12:53 AM 28.9 °F - 27.0 °F 92% 29.73 in 0.5 mi Calm Calm - N/A Fog Light Freezing Fog
1:01 AM 28.9 °F - 28.0 °F 96% 29.73 in 0.2 mi Calm Calm - N/A Fog Light Freezing Fog
1:53 AM 28.9 °F - 27.0 °F 92% 29.74 in 0.2 mi Calm Calm - N/A Fog Light Freezing Fog
2:08 AM 28.9 °F 25.2 °F 27.0 °F 92% 29.73 in 0.8 mi SE 3.5 mph - 0.01 in Snow Light Snow
2:16 AM 28.9 °F 25.2 °F 27.0 °F 92% 29.73 in 1.8 mi SE 3.5 mph - 0.01 in Snow Light Snow
2:24 AM 28.9 °F 22.8 °F 27.0 °F 92% 29.72 in 1.0 mi SE 5.8 mph - 0.01 in Snow Light Snow
2:39 AM 28.9 °F - 28.0 °F 96% 29.72 in 0.8 mi Calm Calm - 0.03 in Snow Light Snow
2:46 AM 28.0 °F 22.8 °F 27.0 °F 96% 29.72 in 1.5 mi WNW 4.6 mph - 0.03 in Snow Light Snow
2:53 AM 28.0 °F 22.8 °F 27.0 °F 96% 29.73 in 2.0 mi West 4.6 mph - 0.03 in Snow Light Snow
3:00 AM 28.0 °F 24.2 °F 27.0 °F 96% 29.72 in 3.0 mi WNW 3.5 mph - 0.00 in Snow Light Snow
3:21 AM 28.0 °F - 26.1 °F 92% 29.72 in 1.8 mi Calm Calm - 0.01 in Snow Light Snow
3:36 AM 28.0 °F 24.2 °F 27.0 °F 96% 29.72 in 2.0 mi ESE 3.5 mph - 0.01 in Snow Light Snow
3:46 AM 28.0 °F - 27.0 °F 96% 29.72 in 1.2 mi Calm Calm - 0.02 in Snow Light Snow
3:53 AM 28.0 °F - 27.0 °F 96% 29.72 in 1.2 mi Calm Calm - 0.02 in Snow Light Snow
4:12 AM 27.0 °F 23.0 °F 26.1 °F 96% 29.71 in 3.0 mi West 3.5 mph - 0.00 in Snow Light Snow
4:21 AM 27.0 °F - 26.1 °F 96% 29.70 in 5.0 mi Calm Calm - 0.00 in Snow Light Snow
4:40 AM 27.0 °F - 26.1 °F 96% 29.69 in 2.5 mi Calm Calm - 0.01 in Snow Light Snow
4:53 AM 27.0 °F 20.5 °F 25.0 °F 92% 29.71 in 2.5 mi NW 5.8 mph - 0.01 in Snow Light Snow
5:02 AM 26.1 °F 20.5 °F 25.0 °F 96% 29.69 in 5.0 mi North 4.6 mph - 0.00 in Snow Light Snow
5:12 AM 27.0 °F 23.0 °F 25.0 °F 92% 29.69 in 8.0 mi North 3.5 mph - 0.00 in   Overcast
5:53 AM 27.0 °F 23.0 °F 25.0 °F 92% 29.72 in 10.0 mi West 3.5 mph - 0.00 in   Overcast
6:10 AM 27.0 °F 23.0 °F 25.0 °F 92% 29.70 in 3.0 mi SW 3.5 mph - 0.00 in Snow Light Snow
6:13 AM 27.0 °F - 25.0 °F 92% 29.70 in 1.8 mi Calm Calm - 0.01 in Snow Light Snow
6:32 AM 27.0 °F 21.6 °F 26.1 °F 96% 29.70 in 1.0 mi South 4.6 mph - 0.02 in Snow Light Snow
6:53 AM 28.0 °F 24.2 °F 26.1 °F 92% 29.73 in 1.0 mi South 3.5 mph - 0.04 in Snow Light Snow
7:19 AM 27.0 °F 23.0 °F 26.1 °F 96% 29.70 in 1.2 mi NW 3.5 mph - 0.01 in Snow Light Snow
7:33 AM 27.0 °F - 26.1 °F 96% 29.71 in 1.0 mi Calm Calm - 0.02 in Snow Light Snow
7:46 AM 28.0 °F 24.2 °F 26.1 °F 92% 29.72 in 0.8 mi WNW 3.5 mph - 0.04 in Snow Light Snow
7:53 AM 28.0 °F 22.8 °F 26.1 °F 92% 29.74 in 0.5 mi WNW 4.6 mph - 0.05 in Fog , Snow Snow
8:08 AM 28.0 °F 24.2 °F 26.1 °F 92% 29.72 in 0.5 mi WNW 3.5 mph - 0.02 in Fog , Snow Snow
8:22 AM 28.0 °F - 26.1 °F 92% 29.73 in 0.5 mi Calm Calm - 0.03 in Fog , Snow Snow
8:53 AM 28.0 °F - 27.0 °F 96% 29.77 in 0.5 mi Calm Calm - 0.05 in Fog , Snow Snow
9:14 AM 28.0 °F - 27.0 °F 96% 29.74 in 0.8 mi Calm Calm - 0.02 in Snow Light Snow
9:22 AM 28.0 °F - 27.0 °F 96% 29.75 in 1.2 mi Calm Calm - 0.02 in Snow Light Snow
9:29 AM 28.0 °F - 27.0 °F 96% 29.75 in 2.0 mi Calm Calm - 0.02 in Snow Light Snow
9:41 AM 28.9 °F - 27.0 °F 92% 29.76 in 3.0 mi Calm Calm - 0.02 in Snow Light Snow
9:53 AM 28.9 °F - 27.0 °F 92% 29.79 in 6.0 mi Calm Calm - 0.02 in   Overcast
10:09 AM 28.9 °F - 28.0 °F 96% 29.76 in 10.0 mi Calm Calm - N/A   Overcast
10:53 AM 28.9 °F - 28.0 °F 96% 29.80 in 5.0 mi Calm Calm - 0.00 in Snow Light Snow
11:03 AM 28.9 °F - 28.0 °F 96% 29.78 in 7.0 mi Calm Calm - 0.00 in Snow Light Snow
11:25 AM 30.0 °F - 28.0 °F 92% 29.77 in 10.0 mi Calm Calm - 0.00 in   Overcast
11:53 AM 30.0 °F - 28.0 °F 92% 29.81 in 10.0 mi Calm Calm - 0.00 in   Overcast
12:33 PM 30.9 °F - 27.0 °F 85% 29.76 in 10.0 mi Calm Calm - N/A   Overcast
12:46 PM 30.9 °F - 28.0 °F 89% 29.75 in 10.0 mi Calm Calm - N/A   Overcast
12:53 PM 30.9 °F - 28.0 °F 89% 29.77 in 10.0 mi Calm Calm - N/A   Overcast
1:01 PM 30.9 °F - 27.0 °F 85% 29.75 in 10.0 mi Calm Calm - N/A   Overcast
1:46 PM 32.0 °F 27.5 °F 28.0 °F 85% 29.75 in 10.0 mi NW 4.6 mph - N/A   Overcast
1:53 PM 32.0 °F 27.5 °F 28.0 °F 85% 29.77 in 10.0 mi NW 4.6 mph - N/A   Overcast
2:53 PM 33.1 °F - 27.0 °F 78% 29.77 in 10.0 mi Calm Calm - N/A   Overcast
3:19 PM 36.0 °F - 26.1 °F 67% 29.74 in 10.0 mi Calm Calm - N/A   Overcast
3:41 PM 35.1 °F 30.1 °F 26.1 °F 70% 29.74 in 10.0 mi North 5.8 mph - N/A   Mostly Cloudy
3:53 PM 35.1 °F 32.2 °F 26.1 °F 70% 29.75 in 10.0 mi North 3.5 mph - N/A   Mostly Cloudy
4:53 PM 33.1 °F 27.7 °F 28.0 °F 82% 29.78 in 10.0 mi NE 5.8 mph - N/A   Overcast
5:37 PM 30.0 °F 22.4 °F 27.0 °F 88% 29.77 in 1.8 mi NNW 8.1 mph - 0.00 in Snow Light Snow
5:45 PM 30.0 °F 21.7 °F 28.0 °F 92% 29.77 in 0.8 mi NNW 9.2 mph - 0.00 in Snow Light Snow
5:53 PM 30.0 °F 22.4 °F 28.0 °F 92% 29.80 in 0.8 mi North 8.1 mph - 0.01 in Snow Light Snow
6:02 PM 28.9 °F 21.1 °F 27.0 °F 92% 29.77 in 1.0 mi NNW 8.1 mph - 0.00 in Snow Light Snow
6:04 PM 28.9 °F 21.9 °F 27.0 °F 92% 29.77 in 0.8 mi NNW 6.9 mph - 0.00 in Snow Light Snow
6:31 PM 28.9 °F 21.1 °F 27.0 °F 92% 29.79 in 1.0 mi North 8.1 mph - 0.03 in Snow Light Snow
6:53 PM 28.9 °F 21.9 °F 27.0 °F 92% 29.82 in 1.2 mi NE 6.9 mph - 0.05 in Snow Light Snow
7:04 PM 28.9 °F 23.9 °F 27.0 °F 92% 29.79 in 3.0 mi NNE 4.6 mph - 0.00 in Snow Light Snow
7:53 PM 28.0 °F - 27.0 °F 96% 29.83 in 10.0 mi Calm Calm - 0.00 in   Overcast
8:27 PM 27.0 °F - 26.1 °F 96% 29.79 in 10.0 mi Calm Calm - N/A   Overcast
8:38 PM 27.0 °F - 26.1 °F 96% 29.79 in 9.0 mi Calm Calm - N/A   Overcast
8:53 PM 27.0 °F 21.6 °F 25.0 °F 92% 29.83 in 10.0 mi WNW 4.6 mph - N/A   Overcast
9:35 PM 28.0 °F 22.8 °F 25.0 °F 88% 29.81 in 2.5 mi NW 4.6 mph - 0.00 in Snow Light Snow
9:42 PM 28.0 °F 22.8 °F 25.0 °F 88% 29.81 in 1.5 mi NW 4.6 mph - 0.00 in Snow Light Snow
9:53 PM 28.0 °F - 26.1 °F 92% 29.85 in 1.5 mi Calm Calm - 0.01 in Snow Light Snow
10:07 PM 27.0 °F - 26.1 °F 96% 29.81 in 2.0 mi Calm Calm - 0.00 in Snow Light Snow
10:14 PM 27.0 °F - 25.0 °F 92% 29.82 in 1.5 mi Calm Calm - 0.00 in Snow Light Snow
10:24 PM 27.0 °F - 25.0 °F 92% 29.82 in 1.8 mi Calm Calm - 0.00 in Snow Light Snow
10:36 PM 27.0 °F - 25.0 °F 92% 29.82 in 1.8 mi Calm Calm - 0.01 in Snow Light Snow
10:53 PM 27.0 °F 23.0 °F 25.0 °F 92% 29.86 in 1.5 mi NNW 3.5 mph - 0.01 in Snow Light Snow
11:00 PM 27.0 °F 21.6 °F 25.0 °F 92% 29.82 in 1.5 mi North 4.6 mph - 0.00 in Snow Light Snow
11:09 PM 27.0 °F 23.0 °F 25.0 °F 92% 29.82 in 1.8 mi North 3.5 mph - 0.01 in Snow Light Snow
11:17 PM 27.0 °F 23.0 °F 25.0 °F 92% 29.82 in 2.5 mi North 3.5 mph - 0.01 in Snow Light Snow
11:23 PM 27.0 °F 23.0 °F 25.0 °F 92% 29.82 in 3.0 mi North 3.5 mph - 0.01 in Snow Light Snow
11:53 PM 27.0 °F - 25.0 °F 92% 29.86 in 10.0 mi Calm Calm - 0.01 in   Overcast